Погода Бологое

Погода Бологое : погода сейчас, прогноз погоды и архив. Всё, что Вы хотите узнать о погоде Бологое!

Поиск расширенной информации на нашем сайте:

Другие новости

Новости СМИ2

Главная страница сайта

Новости сайта

03.07.2017

Напоминаем, что на нашем специализированном сайте Метеоцентр.Азия вы можете получить высокодетализированные автоматические прогнозы погоды по пунктам России, СНГ и мира в авиационном формате (включающие направление и скорость ветра, видимость, явления погоды, количество и форму облачности, нижнюю и верхнюю границу облачности).


Погода Бологое - сегодня

Время (UTC), дата Ветер
(°,м/с) 
Видим.   Явления Облачность Т
(°С)
Тd
(°С)
f(%) Тe
(°С)
Pmin
(гПа)
dP
(гПа)
Po
(мм)
O2
(г/м3)
Тmin Tmax R s Состояние
почвы
03 11.12.17 120 (ЮВ) 4000 м  слаб. снег [диам. отлож. мокр. снега 2 мм]  10/10 300 м 
[Frnb|Ns]
+0.1 -0.3 97 -1  1000.8  -1.4  733  295  -0.2       
06 11.12.17 120 (ЮВ) 4000 м  дымка{снег} [диам. отлож. мокр. снега 2 мм]  10/10 300 м 
[St]
+0.9 +0.4 96 1001.1  0.3  734  294  -0.2    12  равномерный
мокрый или
старый снег
100% 
09 11.12.17 130 (ЮВ) 4000 м  слаб. дождь  10/10 300 м 
[Frnb|Ns]
+1.7 +1.2 96 1001.7  0.7  734  294           
12 11.12.17 120 (ЮВ) 4000 м  слаб. снег{дождь}  10/10 200 м 
[Frnb|Ns]
+0.3 -0.3 96 1002.1  0.2  734  296           
15 11.12.17 130 (ЮВ) 4000 м  слаб. снег  10/10 300 м 
[Frnb|Ns]
+0.2 -0.3 96 +1  1003.2  1.1  735  296         
18 11.12.17 270 (З) 4000 м  в посл. час снег  10/10 200 м 
[St]
+0.1 -0.4 96 +1  1005.2  1.9  737  297    +1.8     
21 11.12.17 тихо ()   4000 м  слаб. снег  10/10 300 м 
[Frnb|Ns]
-0.6 -1.1 96 -1  1008.2  2.8  739  298           
00 12.12.17 тихо ()   4000 м  дымка{снег}  10/10 300 м 
[St]
-1.5 -2.1 96 -2  1009.3  739  300           
03 12.12.17 тихо ()   4000 м  дымка{снег}  10/10 300 м 
[St]
-2.1 -3.2 92 -2  1010.3  740  301  -2.3       
06 12.12.17 тихо ()   4000 м  дымка{снег}  10/10 300 м 
[St]
-2.8 -3.6 94 -3  1010.9  0.5  740  302  -2.8    0.8  11  равномерный
сухой снег
100% 
09 12.12.17 тихо ()   4000 м  дымка  10/10 300 м 
[St]
-3 -3.7 95 -3  1009.9  -1  740  302           
12 12.12.17 140 (ЮВ) 4000 м  дымка  10/10 300 м 
[St]
-2.3 -3.1 94 -4  1007.8  -2.1  738  300           
15 12.12.17 140 (ЮВ) 4000 м  дымка  10/10 300 м 
[St]
-1.3 -2 95 -4  1005.7  -1.9  737  298           
18 12.12.17 140 (ЮВ) 4000 м  дымка{морось} [диам. гололёда 0 мм]  10/10 300 м 
[St]
-0.1 -0.8 95 -3  1002.9  -2.6  735  296    -0.1  0.0     
21 12.12.17 160 (Ю) 4{10}  4000 м  слаб. морось{дождь} [диам. гололёда 0 мм]  10/10 300 м 
[St]
+0.8 +0.1 95 -2  1001.3  -1.4  734  295           
00 13.12.17 180 (Ю) 5{10}  4000 м  дымка{дождь, морось} [диам. гололёда 0 мм]  10/10 300 м 
[St]
+1.8 +1.1 95 -1  1001.7  0.5  734  294           
03 13.12.17 170 (Ю) 4000 м  дымка  9/9 300 м 
[St]
+2.1 +1 92 1000.9  -0.7  734  293  -1.3       
06 13.12.17 210 (ЮЗ) 4{10}  10 км    9/4 300 м средняя 
[St|Ac cast]
+2.8 +1 88 +1  1001.5  0.6  734  293  -1.3    равномерный
мокрый или
старый снег
100% 
09 13.12.17 210 (ЮЗ) 5{12}  10 км    9/5 600 м средняя 
[Sc|Ac cast]
+2.4 -1.4 76 1003.2  1.5  735  294           
12 13.12.17 230 (ЮЗ) 2{12}  10 км  в посл. час ливневой снег  4/3 600 м средняя, верхняя 
[Sc|Ac cast|Ci fib]
+0.9 -0.5 90 1005.6  2.3  737  296           
15 13.12.17 240 (ЮЗ) 4000 м  дымка{ливн. осадки}  9/9 600 м 
[Sc]
-0 -1.2 92 -1  1008.4  2.6  739  298      0.3     
18 13.12.17 190 (Ю) 4000 м  дымка{ливн. осадки}  ясно 
-2 -3.2 91 -1  1010.5  1.8  740  301    +2.9  0.3     
21 13.12.17 180 (Ю) 4000 м  дымка  ясно 
-3.2 -3.9 95 -4  1011.3  0.7  741  302           
00 14.12.17 180 (Ю) 4000 м  дымка  9/9 600 м 
[Sc]
-2.7 -3.6 94 -4  1011.9  0.6  741  302           
03 14.12.17 180 (Ю) 4000 м  дымка  9/9 600 м 
[Sc]
-2 -3 93 -3  1011.7  -0.1  741  301  -3.8         
Время (UTC), дата Ветер
(°,м/с) 
Видим.   Явления Облачность Т
(°С)
Тd
(°С)
f(%) Тe
(°С)
Pmin
(гПа)
dP
(гПа)
Po
(мм)
O2
(г/м3)
Тmin Tmax R s Состояние
почвы

Для получения пояснительной информации подведите курсор к названию столбца.

ПОГОДА Бологое - архив

Всё, что Вы хотите узнать о погоде Бологое - удобно и подробно!

Выберите нужную дату (начиная с 1 января 2015* года) и нажмите кнопку "Найти".
Будут отображены архивные сводки погоды по пункту Бологое, начиная с указанной даты.


Отображать данные в формате CSV (для использования в таблицах Excel)


Внимание! Наш архив погоды предназначен исключительно для личного некоммерческого использования в познавательных целях. Если Вам необходимы официальные справки о состоянии погоды (для производственных, юридических, коммерческих и т.п. целей), обращайтесь в органы Росгидромета.

*Примечание: данная дата относится к архиву по метеостанциям СССР (Россия, СНГ, Балтия).
Архив по метеостанциям Зарубежной Европы и Азии (кроме Китая) хранится 10 дней, по другим регионам земного шара (Китай, Африка, Америка, Австралия, Океания) - 1 день.

Бологое - район местоположения метеостанции


Название, широта, долгота, высота метеостанции:
Бологое 57.9°ш. 34.1°д. 188 м над ур. моря [Российская Федерация]

Дополнительная информация

В oтличие oт бoльшинства пoгoдных сайтoв мы публикуем пoдрoбную метеoинфoрмацию в детальнoм прoфессиoнальнoм фoрмате.

Характеристики температуры и влажнoсти вoздуха измеряются на высoте 2 м в тени вдали oт зданий и деревьев.
Скoрoсть ветра измеряется на высoте 10 м (на урoвне рoста челoвека скoрoсть ветра ниже в 1.5-2 раза). Если метеoстанция нахoдится в гoрoде или в лесу, тo скoрoсть ветра занижена на 2-4 м/с пo сравнению с oткрытым местoм. Скoрoсть ветра над акватoриями крупных рек и oзёр, а также на вершинах хoлмoв на 2-5 м/с выше, чем в oбычных услoвиях.
Атмoсфернoе давление в разных тoчках местнoсти мoжет значительнo oтличаться oт давления на метеoстанции, в зависимoсти oт услoвий рельефа (при пoдъёме на 10 м давление пoнижается примернo на 1 мм рт.ст.).